Home > Weather > Vasai-Virar > Past weeks

Flag for India Weather for the Past 2 Weeks in Vasai-Virar, Maharashtra, India

Now
82 °F

Passing clouds.


Feels Like: 89 °F
Forecast: 79 / 93 °F
Wind: 3 mph from Southwest

Location: Mumbai / Santacruz

Current Time: Apr 30, 2016 at 5:42:48 AM

Latest Report: Apr 30, 2016 at 5:00 AM


Visibility: 2 mi

Pressure: 29.77 "Hg

Humidity: 79%

Dew Point: 75 °F

Location of Vasai-VirarLocation

Historic Weather in Vasai-Virar — Graph

°F

Vasai-Virar Temperature Yesterday

Maximum temperature yesterday: 91 °F (at 11:00 AM)
Minimum temperature yesterday: 82 °F (at 3:30 AM)
Average temperature yesterday: 87 °F

High & Low Weather Summary for the Past Weeks

 TemperatureHumidityPressure
High100 °F (Apr 27, 11:30 AM)89% (Apr 29, 3:30 AM)29.89 "Hg (Apr 29, 3:30 AM)
Low79 °F (Apr 15, 6:30 AM)25% (Apr 27, 8:00 PM)29.68 "Hg (Apr 18, 4:30 PM)
Average86 °F68%29.78 "Hg
* Reported Apr 15 3:30 AM — Apr 30 4:00 AM, Vasai-Virar, Weather by CustomWeather, © 2016

Note: Actual official high and low records may vary slightly from our data, if they occured in-between our weather recording intervals... More about our weather records

Advertising

Vasai-Virar Weather History for the Previous 24 Hours

Scroll right to see more
 ConditionsComfort  
Time TempWeatherWind HumidityBarometerVisibility
4:00 AM
Sat, Apr 30
82 °FPassing clouds.No wind79%29.77 "Hg2 mi
3:30 AM84 °FPassing clouds.3 mph74%29.77 "Hg2 mi
3:00 AM84 °FPassing clouds.3 mph79%29.77 "Hg2 mi
2:30 AM84 °FPassing clouds.6 mph79%29.80 "Hg2 mi
2:00 AM84 °FPassing clouds.6 mph79%29.80 "Hg2 mi
1:30 AM84 °FHaze.5 mph79%29.80 "Hg2 mi
1:00 AM84 °FPassing clouds.3 mph79%29.80 "Hg2 mi
12:30 AM84 °FPassing clouds.5 mph79%29.80 "Hg2 mi
12:00 AM84 °FPassing clouds.5 mph84%29.83 "Hg2 mi
11:30 PM
Fri, Apr 29
84 °FPassing clouds.6 mph84%29.83 "Hg2 mi
11:00 PM84 °FPassing clouds.8 mph84%29.83 "Hg2 mi
10:30 PM86 °FPassing clouds.8 mph75%29.80 "Hg2 mi
10:00 PM84 °FPassing clouds.5 mph79%29.80 "Hg2 mi
9:30 PM86 °FPassing clouds.7 mph75%29.80 "Hg2 mi
9:00 PM86 °FPassing clouds.5 mph75%29.80 "Hg2 mi
8:30 PM86 °FPassing clouds.8 mph75%29.77 "Hg2 mi
8:00 PM86 °FPassing clouds.9 mph70%29.77 "Hg2 mi
7:30 PM86 °FPassing clouds.9 mph70%29.77 "Hg2 mi
7:00 PM86 °FScattered clouds.9 mph70%29.77 "Hg2 mi
6:30 PM88 °FScattered clouds.12 mph59%29.74 "Hg2 mi
6:00 PM90 °FScattered clouds.13 mph55%29.74 "Hg2 mi
5:30 PM90 °FScattered clouds.10 mph59%29.74 "Hg2 mi
5:00 PM90 °FPassing clouds.13 mph55%29.74 "Hg2 mi
4:30 PM91 °FPassing clouds.13 mph56%29.74 "Hg2 mi
4:00 PM91 °FPassing clouds.14 mph59%29.74 "Hg2 mi
3:30 PM90 °FPassing clouds.14 mph59%29.74 "Hg2 mi
3:00 PM91 °FPassing clouds.12 mph59%29.74 "Hg2 mi
2:30 PM91 °FScattered clouds.12 mph59%29.77 "Hg2 mi
1:30 PM91 °FScattered clouds.12 mph59%29.80 "Hg2 mi
1:00 PM91 °FScattered clouds.10 mph63%29.80 "Hg2 mi
12:30 PM91 °FScattered clouds.13 mph67%29.80 "Hg2 mi
12:00 PM91 °FScattered clouds.12 mph67%29.83 "Hg2 mi
11:30 AM90 °FHaze.12 mph67%29.83 "Hg2 mi
11:00 AM91 °FPassing clouds.8 mph63%29.83 "Hg2 mi
10:00 AM90 °FHaze.3 mph59%29.83 "Hg1 mi
9:30 AM88 °FHaze.5 mph66%29.83 "Hg1 mi
9:00 AM86 °FHaze.3 mph75%29.83 "Hg1 mi
8:00 AM84 °FHaze.3 mph79%29.80 "Hg2 mi
7:30 AM84 °FHaze.3 mph79%29.80 "Hg1 mi
7:00 AM82 °FScattered clouds.5 mph84%29.77 "Hg1 mi
6:30 AM82 °FPassing clouds.5 mph84%29.77 "Hg1 mi
6:00 AM82 °FPassing clouds.3 mph84%29.77 "Hg1 mi
5:30 AM82 °FHaze.3 mph84%29.74 "Hg1 mi
5:00 AM84 °FHaze.3 mph79%29.74 "Hg1 mi
Weather by CustomWeather, © 2016

See weather overviewHow to use our weather pages